sat.trackr.live / text

‹ back to catalog

STARLINK-11591 [DTC]

NORAD 63116 · 2025-039N

PAYLOAD ACTIVE UNKNOWN

§ Identity

Operator
Country
US
Launch date
2025-02-27
Launch site
AFETR
Launch vehicle
Mass (kg)
RCS (m²)

Purposes: comms

External: N2YO · Heavens-Above · Gunter

§ Orbital elements

Epoch: 2026-09-20T02:07:06.928032Z

Period
91.67 min
Inclination
42.9997°
Eccentricity
0.0001631
Mean motion
15.70895707 rev/d
Perigee alt
355.2 km
Apogee alt
357.4 km
Semi-major
6,734.5 km
B*
1.0790e-3
RAAN
144.6851°
Arg perigee
292.4453°
Mean anomaly
67.6242°
Rev number
9,019

§ Raw data

STARLINK-11591 [DTC]1 63116U 25039N   26263.08827463  .00140698  00000+0  10790-2 0  99992 63116  42.9997 144.6851 0001631 292.4453  67.6242 15.70895707 90193

JSON: /api/v1/satellites/63116 · /tle

For live sub-satellite position, see the globe view (requires WebGL).

§ Visibility from observer

Set your observer location to see the next 7 days of passes ≥ 10°. The values pass through the URL so the page stays shareable.

No JS? Fill the form by hand. The geolocation button needs JavaScript.